ELY2521 LLBG-LKPR

Flight info

Callsign ELY2521
Flight time N/A
Altitude 36000
Route DAFNA DCT VELOX N71 DESPO DCT VOLBE DCT VESAR UB545 MUT UL619 OSVEL UQ23 OSDAN UQ26 TUDBU DCT ARNOV DCT ETUBA DCT APROB/N0441F380 DCT BUDOP DCT LITKU DCT SLC DCT VALPI DCT TUMKA DCT VLM
Aircraft B738/M-SDE2E3FGHIJ1LORVWXY/LB1

Departure

Time N/A
Airport Ben Gurion International Airport (LLBG)

Arrival

Time 2026-05-04 11:19
Airport Václav Havel Airport Prague (LKPR)
Time Latitude Longitude Altitude Speed Heading
2026-05-04 10:49 48.90435 18.20023 38077 ft 419 kts 306°
2026-05-04 10:50 48.93902 18.12857 38080 ft 419 kts 306°
2026-05-04 10:51 49.04291 17.86610 38076 ft 416 kts 286°
2026-05-04 10:52 49.05115 17.82373 38069 ft 416 kts 286°
2026-05-04 10:52 49.06755 17.73888 38074 ft 416 kts 286°
2026-05-04 10:54 49.13416 17.40033 38078 ft 417 kts 286°
2026-05-04 10:56 49.20012 17.06025 37736 ft 423 kts 286°
2026-05-04 10:56 49.20842 17.01708 37289 ft 422 kts 286°
2026-05-04 10:57 49.21389 16.98860 36904 ft 421 kts 286°
2026-05-04 10:57 49.22481 16.93158 36212 ft 420 kts 285°
2026-05-04 10:57 49.23299 16.88869 35639 ft 419 kts 285°
2026-05-04 10:57 49.24117 16.84569 35020 ft 420 kts 285°
2026-05-04 10:58 49.24658 16.81721 34604 ft 420 kts 285°
2026-05-04 10:58 49.25475 16.77408 33975 ft 421 kts 285°
2026-05-04 10:58 49.26292 16.73091 33324 ft 422 kts 285°
2026-05-04 10:58 49.27110 16.68761 32658 ft 423 kts 285°
2026-05-04 10:59 49.27928 16.64418 31977 ft 424 kts 285°
2026-05-04 10:59 49.28736 16.60121 31297 ft 425 kts 285°
2026-05-04 10:59 49.29557 16.55743 30583 ft 426 kts 285°
2026-05-04 10:59 49.30378 16.51352 29849 ft 428 kts 285°
2026-05-04 11:00 49.31190 16.47005 29080 ft 431 kts 285°
2026-05-04 11:01 49.36812 16.16594 24916 ft 413 kts 284°
2026-05-04 11:02 49.37586 16.12362 24364 ft 410 kts 284°
2026-05-04 11:02 49.38344 16.08212 23801 ft 408 kts 284°
2026-05-04 11:05 49.54330 15.54876 16208 ft 378 kts 294°
2026-05-04 11:06 49.55540 15.51280 15680 ft 377 kts 294°
2026-05-04 11:06 49.56729 15.47739 15155 ft 375 kts 294°
2026-05-04 11:06 49.57926 15.44168 14639 ft 374 kts 294°
2026-05-04 11:06 49.59118 15.40613 14117 ft 371 kts 294°
2026-05-04 11:08 49.67251 15.16215 10694 ft 355 kts 295°
2026-05-04 11:10 49.75720 14.96074 9299 ft 297 kts 307°
2026-05-04 11:12 49.84476 14.78604 6972 ft 288 kts 311°
2026-05-04 11:12 49.85818 14.76304 6669 ft 286 kts 310°
2026-05-04 11:12 49.87067 14.73963 6423 ft 282 kts 307°
2026-05-04 11:12 49.88242 14.71580 6313 ft 274 kts 306°
2026-05-04 11:13 49.89373 14.69218 6193 ft 272 kts 306°
2026-05-04 11:13 49.90490 14.66864 6068 ft 273 kts 306°
2026-05-04 11:13 49.91622 14.64487 5933 ft 273 kts 306°
2026-05-04 11:13 49.92750 14.62137 5850 ft 269 kts 306°
2026-05-04 11:14 49.93117 14.61381 5823 ft 268 kts 306°
2026-05-04 11:16 50.03153 14.40411 3176 ft 209 kts 306°
2026-05-04 11:16 50.03999 14.38666 2870 ft 197 kts 306°
2026-05-04 11:16 50.04799 14.37050 2613 ft 186 kts 306°
2026-05-04 11:17 50.05540 14.35476 2451 ft 174 kts 306°
2026-05-04 11:17 50.06221 14.34031 2253 ft 161 kts 306°
2026-05-04 11:19 50.10234 14.25734 1186 ft 30 kts 324°
2026-05-04 11:19 50.10385 14.25657 1183 ft 11 kts 358°
2026-05-04 11:19 50.10456 14.25668 1181 ft 9 kts 16°
2026-05-04 11:19 50.10487 14.25747 1178 ft 8 kts 78°
2026-05-04 11:20 50.10494 14.25813 1175 ft 0 kts 80°
2026-05-04 11:22 50.10923 14.26383 1173 ft 17 kts 34°
2026-05-04 11:22 50.11019 14.26486 1170 ft 16 kts 34°
2026-05-04 11:23 50.11075 14.26581 1172 ft 9 kts 75°
2026-05-04 11:23 50.11058 14.26651 1171 ft 7 kts 138°
2026-05-04 11:24 50.10961 14.26845 1172 ft 0 kts 65°